Palma de Mallorca, Spain

7:41 AM CEST on April 26, 2017 (GMT +0200)
Palma De Mallorca

Weather History for LEPA - January, 2013

Change the Weather History Date:

Sunday, January 6, 2013

  Actual Average Record
Temperature  
Mean Temperature 51 °F -  
Max Temperature 67 °F 57 °F 67 °F (2013)
Min Temperature 35 °F 39 °F 33 °F (2005)
Degree Days  
Heating Degree Days 14    
Growing Degree Days 1 (Base 50)    
Moisture  
Dew Point 43 °F    
Average Humidity 82    
Maximum Humidity 100    
Minimum Humidity 38    
Precipitation  
Precipitation 0.00 in 0.05 in - ()
Sea Level Pressure  
Sea Level Pressure 30.29 in    
Wind  
Wind Speed 2 mph ()    
Max Wind Speed 9 mph    
Max Gust Speed -    
Visibility 13.7 miles    
Events      
Averages and records for this station are not official NWS values.
T = Trace of Precipitation, MM = Missing Value Source: Averaged Metar Reports

Daily Weather History Graph

Daily Weather History Graph

Search for Another Location

Airport or City:

Trip Planner

Search our weather history database for the weather conditions in past years. The results will help you decide how hot, cold, wet, or windy it might be!

Date:

Astronomy

Jan. 06, 2013 Rise Set
Actual Time 8:09 AM CET 5:40 PM CET
Civil Twilight 7:39 AM CET 6:10 PM CET
Nautical Twilight 7:06 AM CET 6:43 PM CET
Astronomical Twilight 6:33 AM CET 7:16 PM CET
Moon 2:07 AM CET (1/6) 12:57 PM CET (1/6)
Length of Visible Light 10h 30m
Length of Day
9h 30m
Waning Crescent, 36% of the Moon is Illuminated
Jan 6
Waning Crescent
Jan 11
New
Jan 19
First Quarter
Jan 27
Full
Feb 3
Last Quarter

Hourly Weather History & Observations

Time (CET) Temp. Windchill Dew Point Humidity Pressure Visibility Wind Dir Wind Speed Gust Speed Precip Events Conditions
12:00 AM 41.0 °F - 39.2 °F 93% 30.30 in - Variable 1.2 mph - N/A   Clear
12:30 AM 44.6 °F - 42.8 °F 93% 30.30 in - South 1.2 mph - N/A   Clear
1:00 AM 40 °F - 37 °F 85% 30.31 in 12 mi NE 2.3 mph - -  
1:00 AM 41.0 °F - 39.2 °F 93% 30.30 in - Variable 1.2 mph - N/A   Clear
1:30 AM 39.2 °F - 37.4 °F 93% 30.27 in - Variable 2.3 mph - N/A   Clear
2:30 AM 41.0 °F - 37.4 °F 87% 30.27 in - Variable 1.2 mph - N/A   Clear
3:00 AM 39.2 °F - 37.4 °F 93% 30.27 in - Variable 2.3 mph - N/A   Clear
3:30 AM 39.2 °F - 37.4 °F 93% 30.27 in - ENE 2.3 mph - N/A   Clear
4:00 AM 41.0 °F - 39.2 °F 93% 30.27 in - Variable 1.2 mph - N/A   Clear
4:30 AM 39.2 °F - 37.4 °F 93% 30.27 in - Calm Calm - N/A   Clear
5:30 AM 37.4 °F - 35.6 °F 93% 30.27 in - Variable 1.2 mph - N/A   Clear
6:00 AM 39.2 °F - 35.6 °F 87% 30.27 in - Variable 1.2 mph - N/A   Clear
6:30 AM 37.4 °F - 35.6 °F 93% 30.27 in - Variable 1.2 mph - N/A   Clear
7:00 AM 35 °F - 33 °F 91% 30.29 in 12 mi Calm Calm - -  
7:00 AM 37.4 °F - 35.6 °F 93% 30.27 in - Variable 1.2 mph - N/A   Clear
7:30 AM 37.4 °F 34.9 °F 35.6 °F 93% 30.27 in - ENE 3.5 mph - N/A   Clear
8:00 AM 37.4 °F 34.9 °F 35.6 °F 93% 30.30 in - ENE 3.5 mph - N/A   Clear
8:30 AM 37.4 °F - 35.6 °F 93% 30.30 in - Variable 2.3 mph - N/A   Clear
9:00 AM 41.0 °F - 39.2 °F 93% 30.30 in - Variable 2.3 mph - N/A   Clear
9:30 AM 42.8 °F 40.1 °F 41.0 °F 93% 30.33 in - NNE 4.6 mph - N/A   Clear
10:00 AM 53.6 °F - 46.4 °F 77% 30.33 in - Calm Calm - N/A   Clear
11:00 AM 59.0 °F - 46.4 °F 63% 30.33 in - Variable 2.3 mph - N/A   Clear
11:30 AM 62.6 °F - 48.2 °F 59% 30.36 in - ENE 5.8 mph - N/A   Clear
12:00 PM 64.4 °F - 44.6 °F 49% 30.33 in - Variable 1.2 mph - N/A   Clear
12:30 PM 68.0 °F - 42.8 °F 40% 30.33 in - Calm Calm - N/A   Clear
1:00 PM 65 °F - 46 °F 38% 30.32 in 19 mi WSW 6.9 mph - -  
1:00 PM 64.4 °F - 50.0 °F 59% 30.30 in - WSW 5.8 mph - N/A   Clear
1:30 PM 64.4 °F - 50.0 °F 59% 30.30 in - WSW 6.9 mph - N/A   Clear
2:00 PM 62.6 °F - 50.0 °F 63% 30.30 in - SW 9.2 mph - N/A   Clear
2:30 PM 62.6 °F - 48.2 °F 59% 30.30 in - SW 6.9 mph - N/A   Clear
3:00 PM 62.6 °F - 50.0 °F 63% 30.30 in - SW 6.9 mph - N/A   Clear
3:30 PM 62.6 °F - 51.8 °F 68% 30.30 in - SW 5.8 mph - N/A   Clear
4:00 PM 62.6 °F - 53.6 °F 72% 30.30 in - WSW 5.8 mph - N/A   Clear
4:30 PM 62.6 °F - 53.6 °F 72% 30.30 in - WSW 3.5 mph - N/A   Clear
5:00 PM 60.8 °F - 53.6 °F 77% 30.27 in - WSW 3.5 mph - N/A   Clear
5:30 PM 59.0 °F - 51.8 °F 77% 30.27 in - Variable 1.2 mph - N/A   Clear
6:00 PM 57.2 °F - 51.8 °F 82% 30.27 in - Calm Calm - N/A   Clear
6:30 PM 51.8 °F - 48.2 °F 88% 30.27 in - SE 2.3 mph - N/A   Clear
7:00 PM 49 °F - 46 °F 83% 30.30 in 12 mi Calm Calm - -  
7:00 PM 50.0 °F - 48.2 °F 94% 30.27 in - Calm Calm - N/A   Clear
7:30 PM 50.0 °F - 48.2 °F 94% 30.30 in - Calm Calm - N/A   Clear
8:00 PM 48.2 °F - 46.4 °F 93% 30.27 in - NE 3.5 mph - N/A   Clear
8:30 PM 46.4 °F - 44.6 °F 93% 30.27 in - Calm Calm - N/A   Clear
9:00 PM 44.6 °F - 42.8 °F 93% 30.27 in - Variable 2.3 mph - N/A   Clear
9:30 PM 44.6 °F - 42.8 °F 93% 30.27 in - NE 1.2 mph - N/A   Clear
10:00 PM 44.6 °F - 42.8 °F 93% 30.30 in - Variable 1.2 mph - N/A   Clear
10:30 PM 44.6 °F - 44.6 °F 100% 30.27 in - Calm Calm - N/A   Clear
11:00 PM 41.0 °F - 41.0 °F 100% 30.30 in - Calm Calm - N/A   Clear
11:30 PM 41.0 °F - 41.0 °F 100% 30.30 in - Calm Calm - N/A   Clear